Wolf Point, MT

1:25 AM MST on November 18, 2019 (GMT -0700)
Clayton

Weather History for KOLF - October, 2019

Change the Weather History Date:

Sunday, October 20, 2019

  Actual Average Record
Temperature  
Mean Temperature 40 °F -  
Max Temperature 56 °F 56 °F 82 °F (2017)
Min Temperature 23 °F 28 °F 22 °F (2018)
Degree Days  
Heating Degree Days 25    
Cooling Degree Days 0    
Moisture  
Dew Point 25 °F    
Average Humidity 62    
Maximum Humidity 85    
Minimum Humidity 27    
Precipitation  
Precipitation 0.00 in 0.02 in 0.04 in (2004)
Month to date precipitation 0.27 0.57  
Year to date precipitation 17.71 11.25  
Sea Level Pressure  
Sea Level Pressure 29.86 in    
Wind  
Wind Speed 5 mph (NNE)    
Max Wind Speed 15 mph    
Max Gust Speed -    
Visibility 10 miles    
Events      
T = Trace of Precipitation, MM = Missing Value Source: NWS Daily Summary

Daily Weather History Graph

Daily Weather History Graph

Search for Another Location

Airport or City:

Astronomy

Oct. 20, 2019 Rise Set
Actual Time 7:28 AM MDT 6:04 PM MDT
Civil Twilight 6:57 AM MDT 6:36 PM MDT
Nautical Twilight 6:21 AM MDT 7:12 PM MDT
Astronomical Twilight 5:45 AM MDT 7:48 PM MDT
Moon 10:57 PM MDT (10/20) 2:18 PM MDT (10/20)
Length of Visible Light 11h 38m
Length of Day
10h 35m
Waning Gibbous, 58% of the Moon is Illuminated
Oct 20
Waning Gibbous
Oct 21
Last Quarter
Oct 27
New
Nov 4
First Quarter
Nov 12
Full

Hourly Weather History & Observations

Time (MDT) Temp. Windchill Dew Point Humidity Pressure Visibility Wind Dir Wind Speed Gust Speed Precip Events Conditions
12:53 AM 32.0 °F 27.5 °F 25.0 °F 75% 29.65 in 10.0 mi East 4.6 mph - N/A   Clear
1:53 AM 30.9 °F 27.5 °F 24.1 °F 76% 29.66 in 10.0 mi East 3.5 mph - N/A   Clear
2:53 AM 32.0 °F - 26.1 °F 79% 29.68 in 10.0 mi Calm Calm - N/A   Overcast
3:53 AM 30.9 °F - 25.0 °F 79% 29.70 in 10.0 mi Calm Calm - N/A   Scattered Clouds
4:53 AM 30.9 °F 27.5 °F 26.1 °F 82% 29.72 in 10.0 mi SSE 3.5 mph - N/A   Overcast
5:53 AM 32.0 °F - 28.0 °F 85% 29.76 in 10.0 mi Calm Calm - N/A   Scattered Clouds
6:53 AM 30.0 °F 26.5 °F 26.1 °F 85% 29.79 in 10.0 mi SW 3.5 mph - N/A   Mostly Cloudy
7:53 AM 30.9 °F 27.5 °F 27.0 °F 85% 29.82 in 10.0 mi South 3.5 mph - N/A   Clear
8:53 AM 34.0 °F 29.8 °F 30.0 °F 85% 29.86 in 10.0 mi SW 4.6 mph - N/A   Clear
9:53 AM 41.0 °F - 33.1 °F 73% 29.87 in 10.0 mi Calm Calm - N/A   Clear
10:53 AM 50.0 °F - 30.9 °F 48% 29.87 in 10.0 mi NNE 11.5 mph - N/A   Clear
11:53 AM 50.0 °F - 28.0 °F 43% 29.89 in 10.0 mi North 15.0 mph - N/A   Overcast
12:53 PM 53.1 °F - 27.0 °F 37% 29.88 in 10.0 mi NE 12.7 mph - N/A   Partly Cloudy
1:53 PM 55.0 °F - 21.9 °F 28% 29.89 in 10.0 mi NE 15.0 mph - N/A   Clear
2:53 PM 55.0 °F - 21.9 °F 28% 29.91 in 10.0 mi North 11.5 mph - N/A   Clear
3:53 PM 55.0 °F - 21.0 °F 27% 29.92 in 10.0 mi ENE 5.8 mph - N/A   Clear
4:53 PM 54.0 °F - 21.0 °F 28% 29.92 in 10.0 mi North 9.2 mph - N/A   Clear
5:53 PM 46.9 °F - 21.9 °F 37% 29.94 in 10.0 mi North 5.8 mph - N/A   Clear
6:53 PM 37.0 °F 34.5 °F 23.0 °F 57% 29.97 in 10.0 mi NNW 3.5 mph - N/A   Clear
7:53 PM 35.1 °F 32.2 °F 21.9 °F 59% 29.99 in 10.0 mi SW 3.5 mph - N/A   Clear
8:53 PM 30.9 °F 25.2 °F 21.9 °F 69% 29.99 in 10.0 mi WNW 5.8 mph - N/A   Clear
9:53 PM 28.0 °F - 21.0 °F 75% 29.99 in 10.0 mi Calm Calm - N/A   Clear
10:53 PM 27.0 °F 23.0 °F 21.0 °F 78% 29.97 in 10.0 mi NW 3.5 mph - N/A   Clear
11:53 PM 26.1 °F - 19.9 °F 78% 29.98 in 10.0 mi Calm Calm - N/A   Clear